sat.trackr.live / text

‹ back to catalog

STARLINK-35380

NORAD 65905 · 2025-224Z

PAYLOAD ACTIVE UNKNOWN

§ Identity

Operator
Country
US
Launch date
2025-10-07
Launch site
AFETR
Launch vehicle
Mass (kg)
RCS (m²)

Purposes: comms

External: N2YO · Heavens-Above · Gunter

§ Orbital elements

Epoch: 2026-05-25T01:00:22.374432Z

Period
94.10 min
Inclination
53.1602°
Eccentricity
0.0001182
Mean motion
15.30212856 rev/d
Perigee alt
474.4 km
Apogee alt
476.0 km
Semi-major
6,853.3 km
B*
6.5125e-4
RAAN
16.7296°
Arg perigee
73.2416°
Mean anomaly
286.8714°
Rev number
3,651

§ Raw data

STARLINK-353801 65905U 25224Z   26145.04192563  .00018986  00000+0  65125-3 0  99912 65905  53.1602  16.7296 0001182  73.2416 286.8714 15.30212856 36514

JSON: /api/v1/satellites/65905 · /tle

For live sub-satellite position, see the globe view (requires WebGL).

§ Visibility from observer

Set your observer location to see the next 7 days of passes ≥ 10°. The values pass through the URL so the page stays shareable.

No JS? Fill the form by hand. The geolocation button needs JavaScript.